STARLINK-1283, 45389

Orbit data source: Space-Track

STARLINK-1283, 45389 is a payload satellite owned by SpaceX/Seattle (US) in LEO that was launched on Wed, 18 Mar 2020 UTC via an FALCON 9 launch vehicle from the Air Force Eastern Test Range (AFETR). Payload-class satellites include a variety of spacecraft equipped with specific instruments for various scientific and technological missions. These include communications satellites like Starlink; space stations such as the ISS; scientific satellites like the Hubble; Earth observation satellites from companies like Planet Labs, Umbra, and HawkEye 360; GPS; miniature CubeSats for education and research; and military/defense satellites.

Loading next visibility...
Identifier
45389, 2020-019AF
Orbit
LEO
Country
Flag of USUS
Related business
Manufacturer
SpaceX/Seattle
Mission
Operational Commercial Communications
Bus & Motor
STARLINK, Unknown motor
Mass
260 kg wet, ~248 kg dry
Launch date (UTC)
2020-03-18 (6 years ago)
Launch vehicle
FALCON 9
Launch site
Air Force Eastern Test Range (AFETR)
Object type
Payload
Rocket body
Debris
Shape & HBR
Box + 1 Pan, 10.1 m
Radar Cross Section
13.562 m², Large (>1 m²)

Expand to show TLE details & history
Last TLE update: 6 hours ago

TLE from 6 hours ago
0 STARLINK-1283
1 45389U 20019AF  25293.00001157  .00022255  00000-0  78878-3 0  9993
2 45389  53.0532  56.5181 0002558  73.0036 123.6088 15.29039172  5804
Epoch: 2025-10-20T00:00Z
TLE epoch observation values (Epoch: 2025-10-20T00:00:00.999Z)
Latitude
-13.38109°
Longitude
-141.94577°
Altitude
483.23 km
Speed
7.624 km/s
True Right ascension
16h 27m 04s
True Declination
-13° 18' 03"
Sunlit
Object was in daylight at epoch
Visualization orbit readout
Latitude
Unknown
Longitude
Unknown
Altitude
Unknown
Speed
Unknown
Apparent Right ascension
Unknown
Apparent Declination
Unknown
Sunlit
N/A
Visualization observer readout
Local Sidereal Time
01:23:23
Azimuth
Unknown
Elevation
Unknown
Doppler factor
Unknown
Orbital elements
Apogee altitude
480.711 km
Perigee altitude
477.203 km
Semi-major axis
6,857.094 km
Eccentricity
0.00026
Inclination
53.0532°
RAAN
56.5181°
Arg. of periapsis
73.0036°
True anomaly
123.63321°
Mean anomaly
123.6088°
Eccentric anomaly
123.621°
Mean motion
3.82237 °/min
Orbital period
94.18 mins
BSTAR
0.00078878
Loading maneuver chart data...
Computing Atmospheric mass density...
Loading historical data...
Loading historical data...
Loading historical data...
Loading historical data...
Loading historical data...
Loading historical data...
Loading historical data...

Documentation

Showing up to 5 results
|